﻿_id,日時,10分間移動積算雨量(mm),1時間移動積算雨量(mm),日雨量(mm),累計雨量(mm)
1,2019-09-23T00:00:00,0,0.5,7,21
2,2019-09-23T00:01:00,0,0.5,0,21
3,2019-09-23T00:02:00,0,0.5,0,21
4,2019-09-23T00:03:00,0,0.5,0,21
5,2019-09-23T00:04:00,0,0.5,0,21
6,2019-09-23T00:05:00,0,0.5,0,21
7,2019-09-23T00:06:00,0,0.5,0,21
8,2019-09-23T00:07:00,0,0.5,0,21
9,2019-09-23T00:08:00,0,0.5,0,21
10,2019-09-23T00:09:00,0,0.5,0,21
11,2019-09-23T00:10:00,0,0.5,0,21
12,2019-09-23T00:11:00,0,0.5,0,21
13,2019-09-23T00:12:00,0,0.5,0,21
14,2019-09-23T00:13:00,0,0.5,0,21
15,2019-09-23T00:14:00,0,0.5,0,21
16,2019-09-23T00:15:00,0,0.5,0,21
17,2019-09-23T00:16:00,0,0,0,21
18,2019-09-23T00:17:00,0,0,0,21
19,2019-09-23T00:18:00,0,0,0,21
20,2019-09-23T00:19:00,0,0,0,21
21,2019-09-23T00:20:00,0,0,0,21
22,2019-09-23T00:21:00,0,0,0,21
23,2019-09-23T00:22:00,0,0,0,21
24,2019-09-23T00:23:00,0,0,0,21
25,2019-09-23T00:24:00,0,0,0,21
26,2019-09-23T00:25:00,0,0,0,21
27,2019-09-23T00:26:00,0,0,0,21
28,2019-09-23T00:27:00,0,0,0,21
29,2019-09-23T00:28:00,0,0,0,21
30,2019-09-23T00:29:00,,,,
31,2019-09-23T00:30:00,0,0,0,21
32,2019-09-23T00:31:00,,,,
33,2019-09-23T00:32:00,0,0,0,21
34,2019-09-23T00:33:00,0,0,0,21
35,2019-09-23T00:34:00,0.5,0.5,0.5,21.5
36,2019-09-23T00:35:00,0.5,0.5,0.5,21.5
37,2019-09-23T00:36:00,0.5,0.5,0.5,21.5
38,2019-09-23T00:37:00,1.5,1.5,1.5,22.5
39,2019-09-23T00:38:00,2.5,2.5,2.5,23.5
40,2019-09-23T00:39:00,3,3,3,24
41,2019-09-23T00:40:00,3,3,3,24
42,2019-09-23T00:41:00,3,3,3,24
43,2019-09-23T00:42:00,3,3,3,24
44,2019-09-23T00:43:00,3,3,3,24
45,2019-09-23T00:44:00,2.5,3,3,24
46,2019-09-23T00:45:00,3,3.5,3.5,24.5
47,2019-09-23T00:46:00,3,3.5,3.5,24.5
48,2019-09-23T00:47:00,2,3.5,3.5,24.5
49,2019-09-23T00:48:00,1,3.5,3.5,24.5
50,2019-09-23T00:49:00,1,4,4,25
51,2019-09-23T00:50:00,1,4,4,25
52,2019-09-23T00:51:00,1.5,4.5,4.5,25.5
53,2019-09-23T00:52:00,1.5,4.5,4.5,25.5
54,2019-09-23T00:53:00,1.5,4.5,4.5,25.5
55,2019-09-23T00:54:00,1.5,4.5,4.5,25.5
56,2019-09-23T00:55:00,1.5,5,5,26
57,2019-09-23T00:56:00,1.5,5,5,26
58,2019-09-23T00:57:00,2,5.5,5.5,26.5
59,2019-09-23T00:58:00,2,5.5,5.5,26.5
60,2019-09-23T00:59:00,1.5,5.5,5.5,26.5
61,2019-09-23T01:00:00,1.5,5.5,5.5,26.5
62,2019-09-23T01:01:00,1,5.5,5.5,26.5
63,2019-09-23T01:02:00,1.5,6,6,27
64,2019-09-23T01:03:00,2,6.5,6.5,27.5
65,2019-09-23T01:04:00,2,6.5,6.5,27.5
66,2019-09-23T01:05:00,,,,
67,2019-09-23T01:06:00,2,7,7,28
68,2019-09-23T01:07:00,1.5,7,7,28
69,2019-09-23T01:08:00,1.5,7,7,28
70,2019-09-23T01:09:00,1.5,7,7,28
71,2019-09-23T01:10:00,1.5,7,7,28
72,2019-09-23T01:11:00,1.5,7,7,28
73,2019-09-23T01:12:00,1,7,7,28
74,2019-09-23T01:13:00,1,7.5,7.5,28.5
75,2019-09-23T01:14:00,1,7.5,7.5,28.5
76,2019-09-23T01:15:00,1,8,8,29
77,2019-09-23T01:16:00,1,8,8,29
78,2019-09-23T01:17:00,2,9,9,30
79,2019-09-23T01:18:00,2,9,9,30
80,2019-09-23T01:19:00,2.5,9.5,9.5,30.5
81,2019-09-23T01:20:00,2.5,9.5,9.5,30.5
82,2019-09-23T01:21:00,2.5,9.5,9.5,30.5
83,2019-09-23T01:22:00,2.5,9.5,9.5,30.5
84,2019-09-23T01:23:00,2.5,10,10,31
85,2019-09-23T01:24:00,2.5,10,10,31
86,2019-09-23T01:25:00,2,10,10,31
87,2019-09-23T01:26:00,2,10,10,31
88,2019-09-23T01:27:00,1.5,10.5,10.5,31.5
89,2019-09-23T01:28:00,1.5,10.5,10.5,31.5
90,2019-09-23T01:29:00,1,10.5,10.5,31.5
91,2019-09-23T01:30:00,1,10.5,10.5,31.5
92,2019-09-23T01:31:00,1,10.5,10.5,31.5
93,2019-09-23T01:32:00,1,10.5,10.5,31.5
94,2019-09-23T01:33:00,0.5,10.5,10.5,31.5
95,2019-09-23T01:34:00,0.5,10,10.5,31.5
96,2019-09-23T01:35:00,0.5,10,10.5,31.5
97,2019-09-23T01:36:00,1,10.5,11,32
98,2019-09-23T01:37:00,0.5,9.5,11,32
99,2019-09-23T01:38:00,0.5,8.5,11,32
100,2019-09-23T01:39:00,0.5,8,11,32
101,2019-09-23T01:40:00,0.5,8,11,32
102,2019-09-23T01:41:00,,,,
103,2019-09-23T01:42:00,1,8.5,11.5,32.5
104,2019-09-23T01:43:00,,,,
105,2019-09-23T01:44:00,1.5,9,12,33
106,2019-09-23T01:45:00,1.5,8.5,12,33
107,2019-09-23T01:46:00,1,8.5,12,33
108,2019-09-23T01:47:00,1.5,9,12.5,33.5
109,2019-09-23T01:48:00,2,9.5,13,34
110,2019-09-23T01:49:00,2,9,13,34
111,2019-09-23T01:50:00,2.5,9.5,13.5,34.5
112,2019-09-23T01:51:00,2,9,13.5,34.5
113,2019-09-23T01:52:00,2,9,13.5,34.5
114,2019-09-23T01:53:00,2.5,9.5,14,35
115,2019-09-23T01:54:00,2,9.5,14,35
116,2019-09-23T01:55:00,2,9,14,35
117,2019-09-23T01:56:00,2,9,14,35
118,2019-09-23T01:57:00,1.5,8.5,14,35
119,2019-09-23T01:58:00,1,8.5,14,35
120,2019-09-23T01:59:00,1,8.5,14,35
121,2019-09-23T02:00:00,0.5,8.5,14,35
122,2019-09-23T02:01:00,0.5,8.5,14,35
123,2019-09-23T02:02:00,0.5,8,14,35
124,2019-09-23T02:03:00,0,7.5,14,35
125,2019-09-23T02:04:00,0,7.5,14,35
126,2019-09-23T02:05:00,0,7,14,35
127,2019-09-23T02:06:00,0,7,14,35
128,2019-09-23T02:07:00,1,8,15,36
129,2019-09-23T02:08:00,1,8,15,36
130,2019-09-23T02:09:00,1.5,8.5,15.5,36.5
131,2019-09-23T02:10:00,1.5,8.5,15.5,36.5
132,2019-09-23T02:11:00,2,9,16,37
133,2019-09-23T02:12:00,2,9,16,37
134,2019-09-23T02:13:00,2,8.5,16,37
135,2019-09-23T02:14:00,2.5,9,16.5,37.5
136,2019-09-23T02:15:00,2.5,8.5,16.5,37.5
137,2019-09-23T02:16:00,2.5,8.5,16.5,37.5
138,2019-09-23T02:17:00,1.5,7.5,16.5,37.5
139,2019-09-23T02:18:00,,,,
140,2019-09-23T02:19:00,1,7,16.5,37.5
141,2019-09-23T02:20:00,,,,
142,2019-09-23T02:21:00,0.5,7,16.5,37.5
143,2019-09-23T02:22:00,0.5,7,16.5,37.5
144,2019-09-23T02:23:00,0.5,6.5,16.5,37.5
145,2019-09-23T02:24:00,0,6.5,16.5,37.5
146,2019-09-23T02:25:00,0,6.5,16.5,37.5
147,2019-09-23T02:26:00,0,6.5,16.5,37.5
148,2019-09-23T02:27:00,0,6,16.5,37.5
149,2019-09-23T02:28:00,0,6,16.5,37.5
150,2019-09-23T02:29:00,0,6,16.5,37.5
151,2019-09-23T02:30:00,0,6,16.5,37.5
152,2019-09-23T02:31:00,0,6,16.5,37.5
153,2019-09-23T02:32:00,0.5,6.5,17,38
154,2019-09-23T02:33:00,0.5,6.5,17,38
155,2019-09-23T02:34:00,0.5,6.5,17,38
156,2019-09-23T02:35:00,0.5,6.5,17,38
157,2019-09-23T02:36:00,0.5,6,17,38
158,2019-09-23T02:37:00,0.5,6,17,38
159,2019-09-23T02:38:00,1,6.5,17.5,38.5
160,2019-09-23T02:39:00,1.5,7,18,39
161,2019-09-23T02:40:00,1.5,7,18,39
162,2019-09-23T02:41:00,1.5,6.5,18,39
163,2019-09-23T02:42:00,1,6.5,18,39
164,2019-09-23T02:43:00,1,6.5,18,39
165,2019-09-23T02:44:00,1.5,6.5,18.5,39.5
166,2019-09-23T02:45:00,1.5,6.5,18.5,39.5
167,2019-09-23T02:46:00,2,7,19,40
168,2019-09-23T02:47:00,2,6.5,19,40
169,2019-09-23T02:48:00,1.5,6,19,40
170,2019-09-23T02:49:00,1,6,19,40
171,2019-09-23T02:50:00,,,,
172,2019-09-23T02:51:00,1,5.5,19,40
173,2019-09-23T02:52:00,1,5.5,19,40
174,2019-09-23T02:53:00,1.5,5.5,19.5,40.5
175,2019-09-23T02:54:00,,,,
176,2019-09-23T02:55:00,1.5,6,20,41
177,2019-09-23T02:56:00,1,6,20,41
178,2019-09-23T02:57:00,1,6,20,41
179,2019-09-23T02:58:00,1,6,20,41
180,2019-09-23T02:59:00,1,6,20,41
181,2019-09-23T03:00:00,1,6,20,41
182,2019-09-23T03:01:00,1,6,20,41
183,2019-09-23T03:02:00,1,6,20,41
184,2019-09-23T03:03:00,0.5,6,20,41
185,2019-09-23T03:04:00,1,6.5,20.5,41.5
186,2019-09-23T03:05:00,0.5,6.5,20.5,41.5
187,2019-09-23T03:06:00,0.5,6.5,20.5,41.5
188,2019-09-23T03:07:00,0.5,5.5,20.5,41.5
189,2019-09-23T03:08:00,0.5,5.5,20.5,41.5
190,2019-09-23T03:09:00,0.5,5,20.5,41.5
191,2019-09-23T03:10:00,0.5,5,20.5,41.5
192,2019-09-23T03:11:00,0.5,4.5,20.5,41.5
193,2019-09-23T03:12:00,0.5,4.5,20.5,41.5
194,2019-09-23T03:13:00,0.5,4.5,20.5,41.5
195,2019-09-23T03:14:00,0,4,20.5,41.5
196,2019-09-23T03:15:00,0,4,20.5,41.5
197,2019-09-23T03:16:00,0,4,20.5,41.5
198,2019-09-23T03:17:00,0,4,20.5,41.5
199,2019-09-23T03:18:00,0,4,20.5,41.5
200,2019-09-23T03:19:00,0,4,20.5,41.5
201,2019-09-23T03:20:00,0,4,20.5,41.5
202,2019-09-23T03:21:00,0,4,20.5,41.5
203,2019-09-23T03:22:00,0,4,20.5,41.5
204,2019-09-23T03:23:00,0,4,20.5,41.5
205,2019-09-23T03:24:00,0,4,20.5,41.5
206,2019-09-23T03:25:00,0,4,20.5,41.5
207,2019-09-23T03:26:00,,,,
208,2019-09-23T03:27:00,0,4,20.5,41.5
209,2019-09-23T03:28:00,0,4,20.5,41.5
210,2019-09-23T03:29:00,,,,
211,2019-09-23T03:30:00,0,4,20.5,41.5
212,2019-09-23T03:31:00,0,4,20.5,41.5
213,2019-09-23T03:32:00,0,3.5,20.5,41.5
214,2019-09-23T03:33:00,0,3.5,20.5,41.5
215,2019-09-23T03:34:00,0,3.5,20.5,41.5
216,2019-09-23T03:35:00,0,3.5,20.5,41.5
217,2019-09-23T03:36:00,0,3.5,20.5,41.5
218,2019-09-23T03:37:00,0,3.5,20.5,41.5
219,2019-09-23T03:38:00,0,3,20.5,41.5
220,2019-09-23T03:39:00,0,2.5,20.5,41.5
221,2019-09-23T03:40:00,0,2.5,20.5,41.5
222,2019-09-23T03:41:00,0,2.5,20.5,41.5
223,2019-09-23T03:42:00,0,2.5,20.5,41.5
224,2019-09-23T03:43:00,0,2.5,20.5,41.5
225,2019-09-23T03:44:00,0,2,20.5,41.5
226,2019-09-23T03:45:00,0,2,20.5,41.5
227,2019-09-23T03:46:00,0,1.5,20.5,41.5
228,2019-09-23T03:47:00,0,1.5,20.5,41.5
229,2019-09-23T03:48:00,0,1.5,20.5,41.5
230,2019-09-23T03:49:00,0,1.5,20.5,41.5
231,2019-09-23T03:50:00,0,1.5,20.5,41.5
232,2019-09-23T03:51:00,0,1.5,20.5,41.5
233,2019-09-23T03:52:00,0,1.5,20.5,41.5
234,2019-09-23T03:53:00,0,1,20.5,41.5
235,2019-09-23T03:54:00,0,1,20.5,41.5
236,2019-09-23T03:55:00,0,0.5,20.5,41.5
237,2019-09-23T03:56:00,0,0.5,20.5,41.5
238,2019-09-23T03:57:00,0,0.5,20.5,41.5
239,2019-09-23T03:58:00,0,0.5,20.5,41.5
240,2019-09-23T03:59:00,0,0.5,20.5,41.5
241,2019-09-23T04:00:00,,,,
242,2019-09-23T04:01:00,0,0.5,20.5,41.5
243,2019-09-23T04:02:00,0,0.5,20.5,41.5
244,2019-09-23T04:03:00,0,0.5,20.5,41.5
245,2019-09-23T04:04:00,0,0,20.5,41.5
246,2019-09-23T04:05:00,0,0,20.5,41.5
247,2019-09-23T04:06:00,0,0,20.5,41.5
248,2019-09-23T04:07:00,0,0,20.5,41.5
249,2019-09-23T04:08:00,0,0,20.5,41.5
250,2019-09-23T04:09:00,0,0,20.5,41.5
251,2019-09-23T04:10:00,0,0,20.5,41.5
252,2019-09-23T04:11:00,0,0,20.5,41.5
253,2019-09-23T04:12:00,0,0,20.5,41.5
254,2019-09-23T04:13:00,0,0,20.5,41.5
255,2019-09-23T04:14:00,0,0,20.5,41.5
256,2019-09-23T04:15:00,0,0,20.5,41.5
257,2019-09-23T04:16:00,0,0,20.5,41.5
258,2019-09-23T04:17:00,0,0,20.5,41.5
259,2019-09-23T04:18:00,0,0,20.5,41.5
260,2019-09-23T04:19:00,0,0,20.5,41.5
261,2019-09-23T04:20:00,0,0,20.5,41.5
262,2019-09-23T04:21:00,0,0,20.5,41.5
263,2019-09-23T04:22:00,0,0,20.5,41.5
264,2019-09-23T04:23:00,0,0,20.5,41.5
265,2019-09-23T04:24:00,0,0,20.5,41.5
266,2019-09-23T04:25:00,0,0,20.5,41.5
267,2019-09-23T04:26:00,0,0,20.5,41.5
268,2019-09-23T04:27:00,0,0,20.5,41.5
269,2019-09-23T04:28:00,0,0,20.5,41.5
270,2019-09-23T04:29:00,0,0,20.5,41.5
271,2019-09-23T04:30:00,0,0,20.5,41.5
272,2019-09-23T04:31:00,0,0,20.5,41.5
273,2019-09-23T04:32:00,0,0,20.5,41.5
274,2019-09-23T04:33:00,,,,
275,2019-09-23T04:34:00,0,0,20.5,41.5
276,2019-09-23T04:35:00,0,0,20.5,41.5
277,2019-09-23T04:36:00,0,0,20.5,41.5
278,2019-09-23T04:37:00,0,0,20.5,41.5
279,2019-09-23T04:38:00,0,0,20.5,41.5
280,2019-09-23T04:39:00,0,0,20.5,41.5
281,2019-09-23T04:40:00,0,0,20.5,41.5
282,2019-09-23T04:41:00,0,0,20.5,41.5
283,2019-09-23T04:42:00,0,0,20.5,41.5
284,2019-09-23T04:43:00,0,0,20.5,41.5
285,2019-09-23T04:44:00,0,0,20.5,41.5
286,2019-09-23T04:45:00,0,0,20.5,41.5
287,2019-09-23T04:46:00,0,0,20.5,41.5
288,2019-09-23T04:47:00,0,0,20.5,41.5
289,2019-09-23T04:48:00,0,0,20.5,41.5
290,2019-09-23T04:49:00,0,0,20.5,41.5
291,2019-09-23T04:50:00,0,0,20.5,41.5
292,2019-09-23T04:51:00,0,0,20.5,41.5
293,2019-09-23T04:52:00,0,0,20.5,41.5
294,2019-09-23T04:53:00,0,0,20.5,41.5
295,2019-09-23T04:54:00,0,0,20.5,41.5
296,2019-09-23T04:55:00,0,0,20.5,41.5
297,2019-09-23T04:56:00,0,0,20.5,41.5
298,2019-09-23T04:57:00,0,0,20.5,41.5
299,2019-09-23T04:58:00,0,0,20.5,41.5
300,2019-09-23T04:59:00,0,0,20.5,41.5
301,2019-09-23T05:00:00,0,0,20.5,41.5
302,2019-09-23T05:01:00,0,0,20.5,41.5
303,2019-09-23T05:02:00,0,0,20.5,41.5
304,2019-09-23T05:03:00,0,0,20.5,41.5
305,2019-09-23T05:04:00,0,0,20.5,41.5
306,2019-09-23T05:05:00,0,0,20.5,41.5
307,2019-09-23T05:06:00,0,0,20.5,41.5
308,2019-09-23T05:07:00,,,,
309,2019-09-23T05:08:00,0,0,20.5,41.5
310,2019-09-23T05:09:00,0,0,20.5,41.5
311,2019-09-23T05:10:00,0,0,20.5,41.5
312,2019-09-23T05:11:00,0,0,20.5,41.5
313,2019-09-23T05:12:00,0,0,20.5,41.5
314,2019-09-23T05:13:00,0,0,20.5,41.5
315,2019-09-23T05:14:00,0,0,20.5,41.5
316,2019-09-23T05:15:00,0,0,20.5,41.5
317,2019-09-23T05:16:00,0,0,20.5,41.5
318,2019-09-23T05:17:00,0,0,20.5,41.5
319,2019-09-23T05:18:00,0,0,20.5,41.5
320,2019-09-23T05:19:00,0,0,20.5,41.5
321,2019-09-23T05:20:00,0,0,20.5,41.5
322,2019-09-23T05:21:00,0,0,20.5,41.5
323,2019-09-23T05:22:00,0,0,20.5,41.5
324,2019-09-23T05:23:00,0,0,20.5,41.5
325,2019-09-23T05:24:00,0,0,20.5,41.5
326,2019-09-23T05:25:00,0,0,20.5,41.5
327,2019-09-23T05:26:00,0,0,20.5,41.5
328,2019-09-23T05:27:00,0,0,20.5,41.5
329,2019-09-23T05:28:00,0,0,20.5,41.5
330,2019-09-23T05:29:00,0,0,20.5,41.5
331,2019-09-23T05:30:00,0,0,20.5,41.5
332,2019-09-23T05:31:00,0,0,20.5,41.5
333,2019-09-23T05:32:00,0,0,20.5,41.5
334,2019-09-23T05:33:00,0,0,20.5,41.5
335,2019-09-23T05:34:00,0,0,20.5,41.5
336,2019-09-23T05:35:00,0,0,20.5,41.5
337,2019-09-23T05:36:00,0,0,20.5,41.5
338,2019-09-23T05:37:00,0,0,20.5,41.5
339,2019-09-23T05:38:00,,,,
340,2019-09-23T05:39:00,0,0,20.5,41.5
341,2019-09-23T05:40:00,0,0,20.5,41.5
342,2019-09-23T05:41:00,,,,
343,2019-09-23T05:42:00,0,0,20.5,41.5
344,2019-09-23T05:43:00,0,0,20.5,41.5
345,2019-09-23T05:44:00,0,0,20.5,41.5
346,2019-09-23T05:45:00,0,0,20.5,41.5
347,2019-09-23T05:46:00,0,0,20.5,41.5
348,2019-09-23T05:47:00,0,0,20.5,41.5
349,2019-09-23T05:48:00,0,0,20.5,41.5
350,2019-09-23T05:49:00,0,0,20.5,41.5
351,2019-09-23T05:50:00,0,0,20.5,41.5
352,2019-09-23T05:51:00,0,0,20.5,41.5
353,2019-09-23T05:52:00,0,0,20.5,41.5
354,2019-09-23T05:53:00,0,0,20.5,41.5
355,2019-09-23T05:54:00,0,0,20.5,41.5
356,2019-09-23T05:55:00,0,0,20.5,41.5
357,2019-09-23T05:56:00,0,0,20.5,41.5
358,2019-09-23T05:57:00,0,0,20.5,41.5
359,2019-09-23T05:58:00,0,0,20.5,41.5
360,2019-09-23T05:59:00,0,0,20.5,41.5
361,2019-09-23T06:00:00,0,0,20.5,41.5
362,2019-09-23T06:01:00,0,0,20.5,41.5
363,2019-09-23T06:02:00,0,0,20.5,41.5
364,2019-09-23T06:03:00,0,0,20.5,41.5
365,2019-09-23T06:04:00,0,0,20.5,41.5
366,2019-09-23T06:05:00,0,0,20.5,41.5
367,2019-09-23T06:06:00,0,0,20.5,41.5
368,2019-09-23T06:07:00,0,0,20.5,41.5
369,2019-09-23T06:08:00,0,0,20.5,41.5
370,2019-09-23T06:09:00,0,0,20.5,41.5
371,2019-09-23T06:10:00,0,0,20.5,41.5
372,2019-09-23T06:11:00,,,,
373,2019-09-23T06:12:00,0,0,20.5,41.5
374,2019-09-23T06:13:00,0,0,20.5,41.5
375,2019-09-23T06:14:00,0,0,20.5,41.5
376,2019-09-23T06:15:00,0,0,20.5,41.5
377,2019-09-23T06:16:00,0,0,20.5,41.5
378,2019-09-23T06:17:00,0,0,20.5,41.5
379,2019-09-23T06:18:00,0,0,20.5,41.5
380,2019-09-23T06:19:00,0,0,20.5,41.5
381,2019-09-23T06:20:00,0,0,20.5,41.5
382,2019-09-23T06:21:00,0,0,20.5,41.5
383,2019-09-23T06:22:00,0,0,20.5,41.5
384,2019-09-23T06:23:00,0,0,20.5,41.5
385,2019-09-23T06:24:00,0,0,20.5,41.5
386,2019-09-23T06:25:00,0,0,20.5,41.5
387,2019-09-23T06:26:00,0,0,20.5,41.5
388,2019-09-23T06:27:00,0,0,20.5,41.5
389,2019-09-23T06:28:00,0,0,20.5,41.5
390,2019-09-23T06:29:00,0,0,20.5,41.5
391,2019-09-23T06:30:00,0,0,20.5,41.5
392,2019-09-23T06:31:00,0,0,20.5,41.5
393,2019-09-23T06:32:00,0,0,20.5,41.5
394,2019-09-23T06:33:00,0,0,20.5,41.5
395,2019-09-23T06:34:00,0,0,20.5,41.5
396,2019-09-23T06:35:00,0,0,20.5,41.5
397,2019-09-23T06:36:00,0,0,20.5,41.5
398,2019-09-23T06:37:00,0,0,20.5,41.5
399,2019-09-23T06:38:00,0,0,20.5,41.5
400,2019-09-23T06:39:00,0,0,20.5,41.5
401,2019-09-23T06:40:00,0,0,20.5,41.5
402,2019-09-23T06:41:00,0,0,20.5,41.5
403,2019-09-23T06:42:00,0,0,20.5,41.5
404,2019-09-23T06:43:00,0,0,20.5,41.5
405,2019-09-23T06:44:00,0,0,20.5,41.5
406,2019-09-23T06:45:00,0,0,20.5,41.5
407,2019-09-23T06:46:00,,,,
408,2019-09-23T06:47:00,0,0,20.5,41.5
409,2019-09-23T06:48:00,0,0,20.5,41.5
410,2019-09-23T06:49:00,0,0,20.5,41.5
411,2019-09-23T06:50:00,0,0,20.5,41.5
412,2019-09-23T06:51:00,0,0,20.5,41.5
413,2019-09-23T06:52:00,0,0,20.5,41.5
414,2019-09-23T06:53:00,0,0,20.5,41.5
415,2019-09-23T06:54:00,0,0,20.5,41.5
416,2019-09-23T06:55:00,0,0,20.5,41.5
417,2019-09-23T06:56:00,0,0,20.5,41.5
418,2019-09-23T06:57:00,0,0,20.5,41.5
419,2019-09-23T06:58:00,0,0,20.5,41.5
420,2019-09-23T06:59:00,0,0,20.5,41.5
421,2019-09-23T07:00:00,0,0,20.5,41.5
422,2019-09-23T07:01:00,0,0,20.5,41.5
423,2019-09-23T07:02:00,0,0,20.5,41.5
424,2019-09-23T07:03:00,0,0,20.5,41.5
425,2019-09-23T07:04:00,0,0,20.5,41.5
426,2019-09-23T07:05:00,0,0,20.5,41.5
427,2019-09-23T07:06:00,0,0,20.5,41.5
428,2019-09-23T07:07:00,0,0,20.5,41.5
429,2019-09-23T07:08:00,0,0,20.5,41.5
430,2019-09-23T07:09:00,0,0,20.5,41.5
431,2019-09-23T07:10:00,0,0,20.5,41.5
432,2019-09-23T07:11:00,0,0,20.5,41.5
433,2019-09-23T07:12:00,0,0,20.5,41.5
434,2019-09-23T07:13:00,0,0,20.5,41.5
435,2019-09-23T07:14:00,0,0,20.5,41.5
436,2019-09-23T07:15:00,0,0,20.5,41.5
437,2019-09-23T07:16:00,0,0,20.5,41.5
438,2019-09-23T07:17:00,0,0,20.5,41.5
439,2019-09-23T07:18:00,0,0,20.5,41.5
440,2019-09-23T07:19:00,,,,
441,2019-09-23T07:20:00,0,0,20.5,41.5
442,2019-09-23T07:21:00,0,0,20.5,41.5
443,2019-09-23T07:22:00,0,0,20.5,41.5
444,2019-09-23T07:23:00,0,0,20.5,41.5
445,2019-09-23T07:24:00,0,0,20.5,41.5
446,2019-09-23T07:25:00,0,0,20.5,41.5
447,2019-09-23T07:26:00,0,0,20.5,41.5
448,2019-09-23T07:27:00,0,0,20.5,41.5
449,2019-09-23T07:28:00,0,0,20.5,41.5
450,2019-09-23T07:29:00,0,0,20.5,41.5
451,2019-09-23T07:30:00,0,0,20.5,41.5
452,2019-09-23T07:31:00,0,0,20.5,41.5
453,2019-09-23T07:32:00,0,0,20.5,41.5
454,2019-09-23T07:33:00,0,0,20.5,41.5
455,2019-09-23T07:34:00,0,0,20.5,41.5
456,2019-09-23T07:35:00,0,0,20.5,41.5
457,2019-09-23T07:36:00,0,0,20.5,41.5
458,2019-09-23T07:37:00,0,0,20.5,41.5
459,2019-09-23T07:38:00,0,0,20.5,41.5
460,2019-09-23T07:39:00,0,0,20.5,41.5
461,2019-09-23T07:40:00,0,0,20.5,41.5
462,2019-09-23T07:41:00,0,0,20.5,41.5
463,2019-09-23T07:42:00,0,0,20.5,41.5
464,2019-09-23T07:43:00,0,0,20.5,41.5
465,2019-09-23T07:44:00,0,0,20.5,41.5
466,2019-09-23T07:45:00,0,0,20.5,41.5
467,2019-09-23T07:46:00,0,0,20.5,41.5
468,2019-09-23T07:47:00,0,0,20.5,41.5
469,2019-09-23T07:48:00,0,0,20.5,41.5
470,2019-09-23T07:49:00,0,0,20.5,41.5
471,2019-09-23T07:50:00,0,0,20.5,41.5
472,2019-09-23T07:51:00,0,0,20.5,41.5
473,2019-09-23T07:52:00,0,0,20.5,41.5
474,2019-09-23T07:53:00,,,,
475,2019-09-23T07:54:00,0,0,20.5,41.5
476,2019-09-23T07:55:00,0,0,20.5,41.5
477,2019-09-23T07:56:00,0,0,20.5,41.5
478,2019-09-23T07:57:00,0,0,20.5,41.5
479,2019-09-23T07:58:00,0,0,20.5,41.5
480,2019-09-23T07:59:00,0,0,20.5,41.5
481,2019-09-23T08:00:00,0,0,20.5,41.5
482,2019-09-23T08:01:00,0,0,20.5,41.5
483,2019-09-23T08:02:00,0,0,20.5,41.5
484,2019-09-23T08:03:00,0,0,20.5,41.5
485,2019-09-23T08:04:00,0,0,20.5,41.5
486,2019-09-23T08:05:00,0,0,20.5,41.5
487,2019-09-23T08:06:00,0,0,20.5,41.5
488,2019-09-23T08:07:00,0,0,20.5,41.5
489,2019-09-23T08:08:00,0,0,20.5,41.5
490,2019-09-23T08:09:00,0,0,20.5,41.5
491,2019-09-23T08:10:00,0,0,20.5,41.5
492,2019-09-23T08:11:00,0,0,20.5,41.5
493,2019-09-23T08:12:00,0,0,20.5,41.5
494,2019-09-23T08:13:00,0,0,20.5,41.5
495,2019-09-23T08:14:00,0,0,20.5,41.5
496,2019-09-23T08:15:00,0,0,20.5,41.5
497,2019-09-23T08:16:00,0,0,20.5,41.5
498,2019-09-23T08:17:00,0,0,20.5,41.5
499,2019-09-23T08:18:00,0,0,20.5,41.5
500,2019-09-23T08:19:00,0,0,20.5,41.5
501,2019-09-23T08:20:00,0,0,20.5,41.5
502,2019-09-23T08:21:00,0,0,20.5,41.5
503,2019-09-23T08:22:00,0,0,20.5,41.5
504,2019-09-23T08:23:00,0,0,20.5,41.5
505,2019-09-23T08:24:00,0,0,20.5,41.5
506,2019-09-23T08:25:00,0,0,20.5,41.5
507,2019-09-23T08:26:00,0,0,20.5,41.5
508,2019-09-23T08:27:00,0,0,20.5,41.5
509,2019-09-23T08:28:00,,,,
510,2019-09-23T08:29:00,0,0,20.5,41.5
511,2019-09-23T08:30:00,,,,
512,2019-09-23T08:31:00,0,0,20.5,41.5
513,2019-09-23T08:32:00,0,0,20.5,41.5
514,2019-09-23T08:33:00,0,0,20.5,41.5
515,2019-09-23T08:34:00,0,0,20.5,41.5
516,2019-09-23T08:35:00,0,0,20.5,41.5
517,2019-09-23T08:36:00,0,0,20.5,41.5
518,2019-09-23T08:37:00,0,0,20.5,41.5
519,2019-09-23T08:38:00,0,0,20.5,41.5
520,2019-09-23T08:39:00,0,0,20.5,41.5
521,2019-09-23T08:40:00,0,0,20.5,41.5
522,2019-09-23T08:41:00,0,0,20.5,41.5
523,2019-09-23T08:42:00,0,0,20.5,41.5
524,2019-09-23T08:43:00,0,0,20.5,41.5
525,2019-09-23T08:44:00,0,0,20.5,41.5
526,2019-09-23T08:45:00,0,0,20.5,41.5
527,2019-09-23T08:46:00,0,0,20.5,41.5
528,2019-09-23T08:47:00,0,0,20.5,41.5
529,2019-09-23T08:48:00,0,0,20.5,41.5
530,2019-09-23T08:49:00,0,0,20.5,41.5
531,2019-09-23T08:50:00,0,0,20.5,41.5
532,2019-09-23T08:51:00,0,0,20.5,41.5
533,2019-09-23T08:52:00,0,0,20.5,41.5
534,2019-09-23T08:53:00,0,0,20.5,41.5
535,2019-09-23T08:54:00,0,0,20.5,41.5
536,2019-09-23T08:55:00,0,0,20.5,41.5
537,2019-09-23T08:56:00,0,0,20.5,41.5
538,2019-09-23T08:57:00,0,0,20.5,41.5
539,2019-09-23T08:58:00,0,0,20.5,41.5
540,2019-09-23T08:59:00,0,0,20.5,41.5
541,2019-09-23T09:00:00,0,0,20.5,41.5
542,2019-09-23T09:01:00,0,0,20.5,41.5
543,2019-09-23T09:02:00,,,,
544,2019-09-23T09:03:00,0,0,20.5,41.5
545,2019-09-23T09:04:00,0,0,20.5,41.5
546,2019-09-23T09:05:00,0,0,20.5,41.5
547,2019-09-23T09:06:00,,,,
548,2019-09-23T09:07:00,0,0,20.5,41.5
549,2019-09-23T09:08:00,0,0,20.5,41.5
550,2019-09-23T09:09:00,0,0,20.5,41.5
551,2019-09-23T09:10:00,0,0,20.5,41.5
552,2019-09-23T09:11:00,0,0,20.5,41.5
553,2019-09-23T09:12:00,0,0,20.5,41.5
554,2019-09-23T09:13:00,0,0,20.5,41.5
555,2019-09-23T09:14:00,0,0,20.5,41.5
556,2019-09-23T09:15:00,0,0,20.5,41.5
557,2019-09-23T09:16:00,0,0,20.5,41.5
558,2019-09-23T09:17:00,0,0,20.5,41.5
559,2019-09-23T09:18:00,0,0,20.5,41.5
560,2019-09-23T09:19:00,0,0,20.5,41.5
561,2019-09-23T09:20:00,0,0,20.5,41.5
562,2019-09-23T09:21:00,0,0,20.5,41.5
563,2019-09-23T09:22:00,0,0,20.5,41.5
564,2019-09-23T09:23:00,0,0,20.5,41.5
565,2019-09-23T09:24:00,0,0,20.5,41.5
566,2019-09-23T09:25:00,0,0,20.5,41.5
567,2019-09-23T09:26:00,0,0,20.5,41.5
568,2019-09-23T09:27:00,0,0,20.5,41.5
569,2019-09-23T09:28:00,0,0,20.5,41.5
570,2019-09-23T09:29:00,0,0,20.5,41.5
571,2019-09-23T09:30:00,0,0,20.5,41.5
572,2019-09-23T09:31:00,0,0,20.5,41.5
573,2019-09-23T09:32:00,0,0,20.5,41.5
574,2019-09-23T09:33:00,,,,
575,2019-09-23T09:34:00,0,0,20.5,41.5
576,2019-09-23T09:35:00,,,,
577,2019-09-23T09:36:00,0,0,20.5,41.5
578,2019-09-23T09:37:00,0,0,20.5,41.5
579,2019-09-23T09:38:00,,,,
580,2019-09-23T09:39:00,0,0,20.5,41.5
581,2019-09-23T09:40:00,0,0,20.5,41.5
582,2019-09-23T09:41:00,0,0,20.5,41.5
583,2019-09-23T09:42:00,0,0,20.5,41.5
584,2019-09-23T09:43:00,0,0,20.5,41.5
585,2019-09-23T09:44:00,0,0,20.5,41.5
586,2019-09-23T09:45:00,0,0,20.5,41.5
587,2019-09-23T09:46:00,0,0,20.5,41.5
588,2019-09-23T09:47:00,0,0,20.5,41.5
589,2019-09-23T09:48:00,0,0,20.5,41.5
590,2019-09-23T09:49:00,0,0,20.5,41.5
591,2019-09-23T09:50:00,0,0,20.5,41.5
592,2019-09-23T09:51:00,0,0,20.5,41.5
593,2019-09-23T09:52:00,0,0,20.5,41.5
594,2019-09-23T09:53:00,0,0,20.5,41.5
595,2019-09-23T09:54:00,0,0,20.5,41.5
596,2019-09-23T09:55:00,0,0,20.5,41.5
597,2019-09-23T09:56:00,0,0,20.5,41.5
598,2019-09-23T09:57:00,0,0,20.5,41.5
599,2019-09-23T09:58:00,0,0,20.5,41.5
600,2019-09-23T09:59:00,0,0,20.5,41.5
601,2019-09-23T10:00:00,0,0,20.5,41.5
602,2019-09-23T10:01:00,0,0,20.5,41.5
603,2019-09-23T10:02:00,0,0,20.5,41.5
604,2019-09-23T10:03:00,0,0,20.5,41.5
605,2019-09-23T10:04:00,0,0,20.5,41.5
606,2019-09-23T10:05:00,0,0,20.5,41.5
607,2019-09-23T10:06:00,0,0,20.5,41.5
608,2019-09-23T10:07:00,0,0,20.5,41.5
609,2019-09-23T10:08:00,,,,
610,2019-09-23T10:09:00,0,0,20.5,41.5
611,2019-09-23T10:10:00,0,0,20.5,41.5
612,2019-09-23T10:11:00,0,0,20.5,41.5
613,2019-09-23T10:12:00,0,0,20.5,41.5
614,2019-09-23T10:13:00,0,0,20.5,41.5
615,2019-09-23T10:14:00,0,0,20.5,41.5
616,2019-09-23T10:15:00,0,0,20.5,41.5
617,2019-09-23T10:16:00,0,0,20.5,41.5
618,2019-09-23T10:17:00,0,0,20.5,41.5
619,2019-09-23T10:18:00,0,0,20.5,41.5
620,2019-09-23T10:19:00,0,0,20.5,41.5
621,2019-09-23T10:20:00,0,0,20.5,41.5
622,2019-09-23T10:21:00,0,0,20.5,41.5
623,2019-09-23T10:22:00,0,0,20.5,41.5
624,2019-09-23T10:23:00,0,0,20.5,41.5
625,2019-09-23T10:24:00,0,0,20.5,41.5
626,2019-09-23T10:25:00,0,0,20.5,41.5
627,2019-09-23T10:26:00,0,0,20.5,41.5
628,2019-09-23T10:27:00,0,0,20.5,41.5
629,2019-09-23T10:28:00,0,0,20.5,41.5
630,2019-09-23T10:29:00,0,0,20.5,41.5
631,2019-09-23T10:30:00,0,0,20.5,41.5
632,2019-09-23T10:31:00,0,0,20.5,41.5
633,2019-09-23T10:32:00,0,0,20.5,41.5
634,2019-09-23T10:33:00,0,0,20.5,41.5
635,2019-09-23T10:34:00,0,0,20.5,41.5
636,2019-09-23T10:35:00,0,0,20.5,41.5
637,2019-09-23T10:36:00,0,0,20.5,41.5
638,2019-09-23T10:37:00,0,0,20.5,41.5
639,2019-09-23T10:38:00,0,0,20.5,41.5
640,2019-09-23T10:39:00,0,0,20.5,41.5
641,2019-09-23T10:40:00,0,0,20.5,41.5
642,2019-09-23T10:41:00,0,0,20.5,41.5
643,2019-09-23T10:42:00,0,0,20.5,41.5